Year,Month,Day,Hour,Minute,Value (Times are PST for temperature in C)
2019,04,01,00,00,6.60
2019,04,01,00,01,6.60
2019,04,01,00,02,6.60
2019,04,01,00,03,6.50
2019,04,01,00,04,6.50
2019,04,01,00,05,6.50
2019,04,01,00,06,6.50
2019,04,01,00,07,6.40
2019,04,01,00,08,6.40
2019,04,01,00,09,6.40
2019,04,01,00,10,6.40
2019,04,01,00,11,6.30
2019,04,01,00,12,6.30
2019,04,01,00,13,6.30
2019,04,01,00,14,6.30
2019,04,01,00,15,6.30
2019,04,01,00,16,6.30
2019,04,01,00,17,6.30
2019,04,01,00,18,6.30
2019,04,01,00,19,6.30
2019,04,01,00,20,6.30
2019,04,01,00,21,6.30
2019,04,01,00,22,6.30
2019,04,01,00,23,6.20
2019,04,01,00,24,6.20
2019,04,01,00,25,6.20
2019,04,01,00,26,6.20
2019,04,01,00,27,6.20
2019,04,01,00,28,6.20
2019,04,01,00,29,6.20
2019,04,01,00,30,6.20
2019,04,01,00,31,6.10
2019,04,01,00,32,6.10
2019,04,01,00,33,6.10
2019,04,01,00,34,6.10
2019,04,01,00,35,6.10
2019,04,01,00,36,6.10
2019,04,01,00,37,6.10
2019,04,01,00,38,6.10
2019,04,01,00,39,6.10
2019,04,01,00,40,6.10
2019,04,01,00,41,6.00
2019,04,01,00,42,6.00
2019,04,01,00,43,6.00
2019,04,01,00,44,6.00
2019,04,01,00,45,6.00
2019,04,01,00,46,6.00
2019,04,01,00,47,6.00
2019,04,01,00,48,6.00
2019,04,01,00,49,6.00
2019,04,01,00,50,5.90
2019,04,01,00,51,5.90
2019,04,01,00,52,5.90
2019,04,01,00,53,5.90
2019,04,01,00,54,5.80
2019,04,01,00,55,5.80
2019,04,01,00,56,5.80
2019,04,01,00,57,5.80
2019,04,01,00,58,5.90
2019,04,01,00,59,5.80
2019,04,01,01,00,5.90
2019,04,01,01,01,5.80
2019,04,01,01,02,5.80
2019,04,01,01,03,5.80
2019,04,01,01,04,5.70
2019,04,01,01,05,5.70
2019,04,01,01,06,5.70
2019,04,01,01,07,5.70
2019,04,01,01,08,5.70
2019,04,01,01,09,5.70
2019,04,01,01,10,5.70
2019,04,01,01,11,5.70
2019,04,01,01,12,5.70
2019,04,01,01,13,5.60
2019,04,01,01,14,5.60
2019,04,01,01,15,5.60
2019,04,01,01,16,5.60
2019,04,01,01,17,5.60
2019,04,01,01,18,5.50
2019,04,01,01,19,5.50
2019,04,01,01,20,5.50
2019,04,01,01,21,5.50
2019,04,01,01,22,5.50
2019,04,01,01,23,5.60
2019,04,01,01,24,5.60
2019,04,01,01,25,5.50
2019,04,01,01,26,5.50
2019,04,01,01,27,5.50
2019,04,01,01,28,5.50
2019,04,01,01,29,5.50
2019,04,01,01,30,5.60
2019,04,01,01,31,5.60
2019,04,01,01,32,5.60
2019,04,01,01,33,5.60
2019,04,01,01,34,5.60
2019,04,01,01,35,5.60
2019,04,01,01,36,5.60
2019,04,01,01,37,5.60
2019,04,01,01,38,5.60
2019,04,01,01,39,5.60
2019,04,01,01,40,5.60
2019,04,01,01,41,5.60
2019,04,01,01,42,5.60
2019,04,01,01,43,5.60
2019,04,01,01,44,5.60
2019,04,01,01,45,5.60
2019,04,01,01,46,5.60
2019,04,01,01,47,5.50
2019,04,01,01,48,5.50
2019,04,01,01,49,5.50
2019,04,01,01,50,5.40
2019,04,01,01,51,5.40
2019,04,01,01,52,5.40
2019,04,01,01,53,5.40
2019,04,01,01,54,5.40
2019,04,01,01,55,5.40
2019,04,01,01,56,5.30
2019,04,01,01,57,5.30
2019,04,01,01,58,5.30
2019,04,01,01,59,5.30
2019,04,01,02,00,5.20
2019,04,01,02,01,5.20
2019,04,01,02,02,5.20
2019,04,01,02,03,5.20
2019,04,01,02,04,5.20
2019,04,01,02,05,5.10
2019,04,01,02,06,5.10
2019,04,01,02,07,5.10
2019,04,01,02,08,5.10
2019,04,01,02,09,5.00
2019,04,01,02,10,5.00
2019,04,01,02,11,5.00
2019,04,01,02,12,5.00
2019,04,01,02,13,5.00
2019,04,01,02,14,5.00
2019,04,01,02,15,5.00
2019,04,01,02,16,5.00
2019,04,01,02,17,5.00
2019,04,01,02,18,5.00
2019,04,01,02,19,5.00
2019,04,01,02,20,4.90
2019,04,01,02,21,4.90
2019,04,01,02,22,4.90
2019,04,01,02,23,4.90
2019,04,01,02,24,4.90
2019,04,01,02,25,4.90
2019,04,01,02,26,4.90
2019,04,01,02,27,4.90
2019,04,01,02,28,4.90
2019,04,01,02,29,4.90
2019,04,01,02,30,4.90
2019,04,01,02,31,5.00
2019,04,01,02,32,5.00
2019,04,01,02,33,5.00
2019,04,01,02,34,4.90
2019,04,01,02,35,4.90
2019,04,01,02,36,4.90
2019,04,01,02,37,4.90
2019,04,01,02,38,4.80
2019,04,01,02,39,4.80
2019,04,01,02,40,4.80
2019,04,01,02,41,4.80
2019,04,01,02,42,4.80
2019,04,01,02,43,4.80
2019,04,01,02,44,4.80
2019,04,01,02,45,4.80
2019,04,01,02,46,4.70
2019,04,01,02,47,4.70
2019,04,01,02,48,4.70
2019,04,01,02,49,4.70
2019,04,01,02,50,4.70
2019,04,01,02,51,4.70
2019,04,01,02,52,4.70
2019,04,01,02,53,4.70
2019,04,01,02,54,4.70
2019,04,01,02,55,4.60
2019,04,01,02,56,4.60
2019,04,01,02,57,4.60
2019,04,01,02,58,4.60
2019,04,01,02,59,4.60
2019,04,01,03,00,4.60
2019,04,01,03,01,4.60
2019,04,01,03,02,4.60
2019,04,01,03,03,4.60
2019,04,01,03,04,4.60
2019,04,01,03,05,4.60
2019,04,01,03,06,4.60
2019,04,01,03,07,4.60
2019,04,01,03,08,4.60
2019,04,01,03,09,4.60
2019,04,01,03,10,4.60
2019,04,01,03,11,4.60
2019,04,01,03,12,4.60
2019,04,01,03,13,4.60
2019,04,01,03,14,4.60
2019,04,01,03,15,4.50
2019,04,01,03,16,4.50
2019,04,01,03,17,4.50
2019,04,01,03,18,4.40
2019,04,01,03,19,4.40
2019,04,01,03,20,4.40
2019,04,01,03,21,4.40
2019,04,01,03,22,4.40
2019,04,01,03,23,4.40
2019,04,01,03,24,4.40
2019,04,01,03,25,4.40
2019,04,01,03,26,4.40
2019,04,01,03,27,4.30
2019,04,01,03,28,4.30
2019,04,01,03,29,4.30
2019,04,01,03,30,4.30
2019,04,01,03,31,4.30
2019,04,01,03,32,4.30
2019,04,01,03,33,4.30
2019,04,01,03,34,4.30
2019,04,01,03,35,4.30
2019,04,01,03,36,4.30
2019,04,01,03,37,4.30
2019,04,01,03,38,4.30
2019,04,01,03,39,4.30
2019,04,01,03,40,4.30
2019,04,01,03,41,4.30
2019,04,01,03,42,4.30
2019,04,01,03,43,4.20
2019,04,01,03,44,4.20
2019,04,01,03,45,4.20
2019,04,01,03,46,4.20
2019,04,01,03,47,4.20
2019,04,01,03,48,4.20
2019,04,01,03,49,4.20
2019,04,01,03,50,4.20
2019,04,01,03,51,4.20
2019,04,01,03,52,4.20
2019,04,01,03,53,4.20
2019,04,01,03,54,4.20
2019,04,01,03,55,4.20
2019,04,01,03,56,4.20
2019,04,01,03,57,4.20
2019,04,01,03,58,4.20
2019,04,01,03,59,4.20
2019,04,01,04,00,4.30
2019,04,01,04,01,4.20
2019,04,01,04,02,4.20
2019,04,01,04,03,4.20
2019,04,01,04,04,4.20
2019,04,01,04,05,4.20
2019,04,01,04,06,4.20
2019,04,01,04,07,4.20
2019,04,01,04,08,4.20
2019,04,01,04,09,4.20
2019,04,01,04,10,4.20
2019,04,01,04,11,4.20
2019,04,01,04,12,4.20
2019,04,01,04,13,4.20
2019,04,01,04,14,4.20
2019,04,01,04,15,4.20
2019,04,01,04,16,4.20
2019,04,01,04,17,4.20
2019,04,01,04,18,4.20
2019,04,01,04,19,4.20
2019,04,01,04,20,4.30
2019,04,01,04,21,4.30
2019,04,01,04,22,4.30
2019,04,01,04,23,4.40
2019,04,01,04,24,4.40
2019,04,01,04,25,4.40
2019,04,01,04,26,4.40
2019,04,01,04,27,4.40
2019,04,01,04,28,4.50
2019,04,01,04,29,4.50
2019,04,01,04,30,4.50
2019,04,01,04,31,4.60
2019,04,01,04,32,4.70
2019,04,01,04,33,4.80
2019,04,01,04,34,4.90
2019,04,01,04,35,5.00
2019,04,01,04,36,5.10
2019,04,01,04,37,5.10
2019,04,01,04,38,5.20
2019,04,01,04,39,5.20
2019,04,01,04,40,5.30
2019,04,01,04,41,5.30
2019,04,01,04,42,5.30
2019,04,01,04,43,5.40
2019,04,01,04,44,5.40
2019,04,01,04,45,5.50
2019,04,01,04,46,5.60
2019,04,01,04,47,5.60
2019,04,01,04,48,5.70
2019,04,01,04,49,5.80
2019,04,01,04,50,5.80
2019,04,01,04,51,5.90
2019,04,01,04,52,6.00
2019,04,01,04,53,6.00
2019,04,01,04,54,6.10
2019,04,01,04,55,6.20
2019,04,01,04,56,6.20
2019,04,01,04,57,6.30
2019,04,01,04,58,6.40
2019,04,01,04,59,6.40
2019,04,01,05,00,6.40
2019,04,01,05,01,6.50
2019,04,01,05,02,6.50
2019,04,01,05,03,6.50
2019,04,01,05,04,6.50
2019,04,01,05,05,6.50
2019,04,01,05,06,6.50
2019,04,01,05,07,6.50
2019,04,01,05,08,6.60
2019,04,01,05,09,6.60
2019,04,01,05,10,6.60
2019,04,01,05,11,6.60
2019,04,01,05,12,6.60
2019,04,01,05,13,6.60
2019,04,01,05,14,6.60
2019,04,01,05,15,6.60
2019,04,01,05,16,6.60
2019,04,01,05,17,6.60
2019,04,01,05,18,6.70
2019,04,01,05,19,6.70
2019,04,01,05,20,6.70
2019,04,01,05,21,6.70
2019,04,01,05,22,6.70
2019,04,01,05,23,6.70
2019,04,01,05,24,6.70
2019,04,01,05,25,6.70
2019,04,01,05,26,6.70
2019,04,01,05,27,6.70
2019,04,01,05,28,6.70
2019,04,01,05,29,6.70
2019,04,01,05,30,6.70
2019,04,01,05,31,6.80
2019,04,01,05,32,6.80
2019,04,01,05,33,6.90
2019,04,01,05,34,6.90
2019,04,01,05,35,6.90
2019,04,01,05,36,7.00
2019,04,01,05,37,7.10
2019,04,01,05,38,7.10
2019,04,01,05,39,7.20
2019,04,01,05,40,7.20
2019,04,01,05,41,7.20
2019,04,01,05,42,7.30
2019,04,01,05,43,7.30
2019,04,01,05,44,7.30
2019,04,01,05,45,7.30
2019,04,01,05,46,7.30
2019,04,01,05,47,7.40
2019,04,01,05,48,7.40
2019,04,01,05,49,7.50
2019,04,01,05,50,7.50
2019,04,01,05,51,7.60
2019,04,01,05,52,7.60
2019,04,01,05,53,7.60
2019,04,01,05,54,7.70
2019,04,01,05,55,7.70
2019,04,01,05,56,7.80
2019,04,01,05,57,7.80
2019,04,01,05,58,7.80
2019,04,01,05,59,7.70
2019,04,01,06,00,7.70
2019,04,01,06,01,7.80
2019,04,01,06,02,7.70
2019,04,01,06,03,7.70
2019,04,01,06,04,7.70
2019,04,01,06,05,7.70
2019,04,01,06,06,7.80
2019,04,01,06,07,7.80
2019,04,01,06,08,7.80
2019,04,01,06,09,7.80
2019,04,01,06,10,7.80
2019,04,01,06,11,7.80
2019,04,01,06,12,7.80
2019,04,01,06,13,7.70
2019,04,01,06,14,7.60
2019,04,01,06,15,7.50
2019,04,01,06,16,7.30
2019,04,01,06,17,7.20
2019,04,01,06,18,7.10
2019,04,01,06,19,7.10
2019,04,01,06,20,7.10
2019,04,01,06,21,7.10
2019,04,01,06,22,7.20
2019,04,01,06,23,7.30
2019,04,01,06,24,7.50
2019,04,01,06,25,7.60
2019,04,01,06,26,7.80
2019,04,01,06,27,7.90
2019,04,01,06,28,8.10
2019,04,01,06,29,8.20
2019,04,01,06,30,8.30
2019,04,01,06,31,8.40
2019,04,01,06,32,8.50
2019,04,01,06,33,8.60
2019,04,01,06,34,8.60
2019,04,01,06,35,8.60
2019,04,01,06,36,8.60
2019,04,01,06,37,8.70
2019,04,01,06,38,8.70
2019,04,01,06,39,8.80
2019,04,01,06,40,8.80
2019,04,01,06,41,8.80
2019,04,01,06,42,8.80
2019,04,01,06,43,8.90
2019,04,01,06,44,8.90
2019,04,01,06,45,8.90
2019,04,01,06,46,8.90
2019,04,01,06,47,8.90
2019,04,01,06,48,9.00
2019,04,01,06,49,9.10
2019,04,01,06,50,9.20
2019,04,01,06,51,9.20
2019,04,01,06,52,9.30
2019,04,01,06,53,9.40
2019,04,01,06,54,9.40
2019,04,01,06,55,9.40
2019,04,01,06,56,9.50
2019,04,01,06,57,9.50
2019,04,01,06,58,9.50
2019,04,01,06,59,9.50
2019,04,01,07,00,9.50
2019,04,01,07,01,9.50
2019,04,01,07,02,9.40
2019,04,01,07,03,9.40
2019,04,01,07,04,9.40
2019,04,01,07,05,9.40
2019,04,01,07,06,9.40
2019,04,01,07,07,9.40
2019,04,01,07,08,9.30
2019,04,01,07,09,9.30
2019,04,01,07,10,9.30
2019,04,01,07,11,9.30
2019,04,01,07,12,9.30
2019,04,01,07,13,9.30
2019,04,01,07,14,9.20
2019,04,01,07,15,9.20
2019,04,01,07,16,9.10
2019,04,01,07,17,9.10
2019,04,01,07,18,9.00
2019,04,01,07,19,8.90
2019,04,01,07,20,8.90
2019,04,01,07,21,8.90
2019,04,01,07,22,8.90
2019,04,01,07,23,8.90
2019,04,01,07,24,8.90
2019,04,01,07,25,8.90
2019,04,01,07,26,9.00
2019,04,01,07,27,8.90
2019,04,01,07,28,8.90
2019,04,01,07,29,9.00
2019,04,01,07,30,9.00
2019,04,01,07,31,9.00
2019,04,01,07,32,9.10
2019,04,01,07,33,9.10
2019,04,01,07,34,9.10
2019,04,01,07,35,9.10
2019,04,01,07,36,9.10
2019,04,01,07,37,9.10
2019,04,01,07,38,9.10
2019,04,01,07,39,9.00
2019,04,01,07,40,9.00
2019,04,01,07,41,9.10
2019,04,01,07,42,9.10
2019,04,01,07,43,9.10
2019,04,01,07,44,9.10
2019,04,01,07,45,9.10
2019,04,01,07,46,9.10
2019,04,01,07,47,9.10
2019,04,01,07,48,9.20
2019,04,01,07,49,9.20
2019,04,01,07,50,9.20
2019,04,01,07,51,9.30
2019,04,01,07,52,9.30
2019,04,01,07,53,9.40
2019,04,01,07,54,9.50
2019,04,01,07,55,9.60
2019,04,01,07,56,9.70
2019,04,01,07,57,9.70
2019,04,01,07,58,9.80
2019,04,01,07,59,9.80
2019,04,01,08,00,9.90
2019,04,01,08,01,9.90
2019,04,01,08,02,10.00
2019,04,01,08,03,10.10
2019,04,01,08,04,10.10
2019,04,01,08,05,10.10
2019,04,01,08,06,10.10
2019,04,01,08,07,10.10
2019,04,01,08,08,10.00
2019,04,01,08,09,10.00
2019,04,01,08,10,10.00
2019,04,01,08,11,10.00
2019,04,01,08,12,10.00
2019,04,01,08,13,10.00
2019,04,01,08,14,10.10
2019,04,01,08,15,10.10
2019,04,01,08,16,10.10
2019,04,01,08,17,10.10
2019,04,01,08,18,10.10
2019,04,01,08,19,10.20
2019,04,01,08,20,10.20
2019,04,01,08,21,10.20
2019,04,01,08,22,10.20
2019,04,01,08,23,10.20
2019,04,01,08,24,10.20
2019,04,01,08,25,10.20
2019,04,01,08,26,10.20
2019,04,01,08,27,10.20
2019,04,01,08,28,10.30
2019,04,01,08,29,10.30
2019,04,01,08,30,10.40
2019,04,01,08,31,10.40
2019,04,01,08,32,10.50
2019,04,01,08,33,10.60
2019,04,01,08,34,10.60
2019,04,01,08,35,10.60
2019,04,01,08,36,10.70
2019,04,01,08,37,10.70
2019,04,01,08,38,10.70
2019,04,01,08,39,10.80
2019,04,01,08,40,10.80
2019,04,01,08,41,10.80
2019,04,01,08,42,10.90
2019,04,01,08,43,10.90
2019,04,01,08,44,10.90
2019,04,01,08,45,10.90
2019,04,01,08,46,10.90
2019,04,01,08,47,10.90
2019,04,01,08,48,11.00
2019,04,01,08,49,11.00
2019,04,01,08,50,11.00
2019,04,01,08,51,11.00
2019,04,01,08,52,11.00
2019,04,01,08,53,11.00
2019,04,01,08,54,11.10
2019,04,01,08,55,11.10
2019,04,01,08,56,11.10
2019,04,01,08,57,11.10
2019,04,01,08,58,11.10
2019,04,01,08,59,11.10
2019,04,01,09,00,11.10
2019,04,01,09,01,11.10
2019,04,01,09,02,11.20
2019,04,01,09,03,11.20
2019,04,01,09,04,11.20
2019,04,01,09,05,11.20
2019,04,01,09,06,11.20
2019,04,01,09,07,11.20
2019,04,01,09,08,11.30
2019,04,01,09,09,11.30
2019,04,01,09,10,11.30
2019,04,01,09,11,11.40
2019,04,01,09,12,11.40
2019,04,01,09,13,11.40
2019,04,01,09,14,11.40
2019,04,01,09,15,11.50
2019,04,01,09,16,11.50
2019,04,01,09,17,11.50
2019,04,01,09,18,11.50
2019,04,01,09,19,11.50
2019,04,01,09,20,11.60
2019,04,01,09,21,11.60
2019,04,01,09,22,11.60
2019,04,01,09,23,11.60
2019,04,01,09,24,11.60
2019,04,01,09,25,11.60
2019,04,01,09,26,11.60
2019,04,01,09,27,11.60
2019,04,01,09,28,11.60
2019,04,01,09,29,11.50
2019,04,01,09,30,11.50
2019,04,01,09,31,11.60
2019,04,01,09,32,11.70
2019,04,01,09,33,11.70
2019,04,01,09,34,11.70
2019,04,01,09,35,11.70
2019,04,01,09,36,11.70
2019,04,01,09,37,11.80
2019,04,01,09,38,11.80
2019,04,01,09,39,11.80
2019,04,01,09,40,11.80
2019,04,01,09,41,11.80
2019,04,01,09,42,11.90
2019,04,01,09,43,11.90
2019,04,01,09,44,11.90
2019,04,01,09,45,11.90
2019,04,01,09,46,11.90
2019,04,01,09,47,11.90
2019,04,01,09,48,11.90
2019,04,01,09,49,11.90
2019,04,01,09,50,11.90
2019,04,01,09,51,12.00
2019,04,01,09,52,12.00
2019,04,01,09,53,12.10
2019,04,01,09,54,12.10
2019,04,01,09,55,12.10
2019,04,01,09,56,12.20
2019,04,01,09,57,12.20
2019,04,01,09,58,12.20
2019,04,01,09,59,12.20
2019,04,01,10,00,12.20
2019,04,01,10,01,12.20
2019,04,01,10,02,12.30
2019,04,01,10,03,12.30
2019,04,01,10,04,12.30
2019,04,01,10,05,12.30
2019,04,01,10,06,12.30
2019,04,01,10,07,12.30
2019,04,01,10,08,12.30
2019,04,01,10,09,12.30
2019,04,01,10,10,12.30
2019,04,01,10,11,12.30
2019,04,01,10,12,12.30
2019,04,01,10,13,12.40
2019,04,01,10,14,12.40
2019,04,01,10,15,12.40
2019,04,01,10,16,12.40
2019,04,01,10,17,12.40
2019,04,01,10,18,12.40
2019,04,01,10,19,12.50
2019,04,01,10,20,12.60
2019,04,01,10,21,12.70
2019,04,01,10,22,12.80
2019,04,01,10,23,12.80
2019,04,01,10,24,12.80
2019,04,01,10,25,12.80
2019,04,01,10,26,12.70
2019,04,01,10,27,12.80
2019,04,01,10,28,12.80
2019,04,01,10,29,12.90
2019,04,01,10,30,12.90
2019,04,01,10,31,12.90
2019,04,01,10,32,12.90
2019,04,01,10,33,12.90
2019,04,01,10,34,12.90
2019,04,01,10,35,12.80
2019,04,01,10,36,12.80
2019,04,01,10,37,12.70
2019,04,01,10,38,12.70
2019,04,01,10,39,12.60
2019,04,01,10,40,12.60
2019,04,01,10,41,12.60
2019,04,01,10,42,12.70
2019,04,01,10,43,12.80
2019,04,01,10,44,12.90
2019,04,01,10,45,13.00
2019,04,01,10,46,13.00
2019,04,01,10,47,13.10
2019,04,01,10,48,13.00
2019,04,01,10,49,13.00
2019,04,01,10,50,13.00
2019,04,01,10,51,12.90
2019,04,01,10,52,13.00
2019,04,01,10,53,13.10
2019,04,01,10,54,13.20
2019,04,01,10,55,13.20
2019,04,01,10,56,13.30
2019,04,01,10,57,13.30
2019,04,01,10,58,13.30
2019,04,01,10,59,13.30
2019,04,01,11,00,13.40
2019,04,01,11,01,13.40
2019,04,01,11,02,13.40
2019,04,01,11,03,13.40
2019,04,01,11,04,13.50
2019,04,01,11,05,13.50
2019,04,01,11,06,13.60
2019,04,01,11,07,13.70
2019,04,01,11,08,13.80
2019,04,01,11,09,13.80
2019,04,01,11,10,13.70
2019,04,01,11,11,13.70
2019,04,01,11,12,13.70
2019,04,01,11,13,13.60
2019,04,01,11,14,13.60
2019,04,01,11,15,13.60
2019,04,01,11,16,13.60
2019,04,01,11,17,13.70
2019,04,01,11,18,13.60
2019,04,01,11,19,13.60
2019,04,01,11,20,13.70
2019,04,01,11,21,13.80
2019,04,01,11,22,13.80
2019,04,01,11,23,13.70
2019,04,01,11,24,13.70
2019,04,01,11,25,13.70
2019,04,01,11,26,13.70
2019,04,01,11,27,13.70
2019,04,01,11,28,13.80
2019,04,01,11,29,14.00
2019,04,01,11,30,14.10
2019,04,01,11,31,14.00
2019,04,01,11,32,14.00
2019,04,01,11,33,14.10
2019,04,01,11,34,14.00
2019,04,01,11,35,14.10
2019,04,01,11,36,14.00
2019,04,01,11,37,14.00
2019,04,01,11,38,14.00
2019,04,01,11,39,14.00
2019,04,01,11,40,13.90
2019,04,01,11,41,13.90
2019,04,01,11,42,13.90
2019,04,01,11,43,13.80
2019,04,01,11,44,13.80
2019,04,01,11,45,14.00
2019,04,01,11,46,14.10
2019,04,01,11,47,14.20
2019,04,01,11,48,14.20
2019,04,01,11,49,14.20
2019,04,01,11,50,14.20
2019,04,01,11,51,14.10
2019,04,01,11,52,14.10
2019,04,01,11,53,14.10
2019,04,01,11,54,14.10
2019,04,01,11,55,14.20
2019,04,01,11,56,14.30
2019,04,01,11,57,14.40
2019,04,01,11,58,14.40
2019,04,01,11,59,14.40
2019,04,01,12,00,14.40
2019,04,01,12,01,14.40
2019,04,01,12,02,14.40
2019,04,01,12,03,14.40
2019,04,01,12,04,14.50
2019,04,01,12,05,14.60
2019,04,01,12,06,14.60
2019,04,01,12,07,14.50
2019,04,01,12,08,14.40
2019,04,01,12,09,14.50
2019,04,01,12,10,14.50
2019,04,01,12,11,14.50
2019,04,01,12,12,14.50
2019,04,01,12,13,14.50
2019,04,01,12,14,14.50
2019,04,01,12,15,14.50
2019,04,01,12,16,14.60
2019,04,01,12,17,14.60
2019,04,01,12,18,14.60
2019,04,01,12,19,14.60
2019,04,01,12,20,14.50
2019,04,01,12,21,14.50
2019,04,01,12,22,14.50
2019,04,01,12,23,14.60
2019,04,01,12,24,14.60
2019,04,01,12,25,14.70
2019,04,01,12,26,14.80
2019,04,01,12,27,14.80
2019,04,01,12,28,14.80
2019,04,01,12,29,14.80
2019,04,01,12,30,14.90
2019,04,01,12,31,15.00
2019,04,01,12,32,15.00
2019,04,01,12,33,15.00
2019,04,01,12,34,14.90
2019,04,01,12,35,14.90
2019,04,01,12,36,14.80
2019,04,01,12,37,14.80
2019,04,01,12,38,14.80
2019,04,01,12,39,14.80
2019,04,01,12,40,14.90
2019,04,01,12,41,14.90
2019,04,01,12,42,15.00
2019,04,01,12,43,15.10
2019,04,01,12,44,15.20
2019,04,01,12,45,15.20
2019,04,01,12,46,15.20
2019,04,01,12,47,15.10
2019,04,01,12,48,15.10
2019,04,01,12,49,15.10
2019,04,01,12,50,15.20
2019,04,01,12,51,15.20
2019,04,01,12,52,15.20
2019,04,01,12,53,15.20
2019,04,01,12,54,15.20
2019,04,01,12,55,15.20
2019,04,01,12,56,15.20
2019,04,01,12,57,15.20
2019,04,01,12,58,15.30
2019,04,01,12,59,15.30
2019,04,01,13,00,15.30
2019,04,01,13,01,15.30
2019,04,01,13,02,15.30
2019,04,01,13,03,15.20
2019,04,01,13,04,15.20
2019,04,01,13,05,15.20
2019,04,01,13,06,15.20
2019,04,01,13,07,15.10
2019,04,01,13,08,15.10
2019,04,01,13,09,15.10
2019,04,01,13,10,15.20
2019,04,01,13,11,15.30
2019,04,01,13,12,15.30
2019,04,01,13,13,15.30
2019,04,01,13,14,15.40
2019,04,01,13,15,15.40
2019,04,01,13,16,15.40
2019,04,01,13,17,15.40
2019,04,01,13,18,15.40
2019,04,01,13,19,15.40
2019,04,01,13,20,15.30
2019,04,01,13,21,15.30
2019,04,01,13,22,15.30
2019,04,01,13,23,15.30
2019,04,01,13,24,15.30
2019,04,01,13,25,15.30
2019,04,01,13,26,15.30
2019,04,01,13,27,15.40
2019,04,01,13,28,15.40
2019,04,01,13,29,15.40
2019,04,01,13,30,15.50
2019,04,01,13,31,15.40
2019,04,01,13,32,15.30
2019,04,01,13,33,15.30
2019,04,01,13,34,15.20
2019,04,01,13,35,15.20
2019,04,01,13,36,15.30
2019,04,01,13,37,15.40
2019,04,01,13,38,15.40
2019,04,01,13,39,15.40
2019,04,01,13,40,15.40
2019,04,01,13,41,15.40
2019,04,01,13,42,15.40
2019,04,01,13,43,15.40
2019,04,01,13,44,15.40
2019,04,01,13,45,15.40
2019,04,01,13,46,15.40
2019,04,01,13,47,15.40
2019,04,01,13,48,15.40
2019,04,01,13,49,15.50
2019,04,01,13,50,15.60
2019,04,01,13,51,15.60
2019,04,01,13,52,15.60
2019,04,01,13,53,15.60
2019,04,01,13,54,15.70
2019,04,01,13,55,15.70
2019,04,01,13,56,15.80
2019,04,01,13,57,15.80
2019,04,01,13,58,15.80
2019,04,01,13,59,15.70
2019,04,01,14,00,15.70
2019,04,01,14,01,15.80
2019,04,01,14,02,15.80
2019,04,01,14,03,15.80
2019,04,01,14,04,15.70
2019,04,01,14,05,15.70
2019,04,01,14,06,15.80
2019,04,01,14,07,15.70
2019,04,01,14,08,15.70
2019,04,01,14,09,15.60
2019,04,01,14,10,15.60
2019,04,01,14,11,15.60
2019,04,01,14,12,15.70
2019,04,01,14,13,15.70
2019,04,01,14,14,15.80
2019,04,01,14,15,15.80
2019,04,01,14,16,15.80
2019,04,01,14,17,15.80
2019,04,01,14,18,15.80
2019,04,01,14,19,15.80
2019,04,01,14,20,15.80
2019,04,01,14,21,15.80
2019,04,01,14,22,15.70
2019,04,01,14,23,15.80
2019,04,01,14,24,15.80
2019,04,01,14,25,15.80
2019,04,01,14,26,15.70
2019,04,01,14,27,15.70
2019,04,01,14,28,15.70
2019,04,01,14,29,15.70
2019,04,01,14,30,15.70
2019,04,01,14,31,15.80
2019,04,01,14,32,15.80
2019,04,01,14,33,15.90
2019,04,01,14,34,15.80
2019,04,01,14,35,15.80
2019,04,01,14,36,15.80
2019,04,01,14,37,15.80
2019,04,01,14,38,15.80
2019,04,01,14,39,15.80
2019,04,01,14,40,15.80
2019,04,01,14,41,15.80
2019,04,01,14,42,15.80
2019,04,01,14,43,15.90
2019,04,01,14,44,15.80
2019,04,01,14,45,15.80
2019,04,01,14,46,15.80
2019,04,01,14,47,15.80
2019,04,01,14,48,15.90
2019,04,01,14,49,15.90
2019,04,01,14,50,16.00
2019,04,01,14,51,16.00
2019,04,01,14,52,16.00
2019,04,01,14,53,16.10
2019,04,01,14,54,16.10
2019,04,01,14,55,16.20
2019,04,01,14,56,16.30
2019,04,01,14,57,16.30
2019,04,01,14,58,16.30
2019,04,01,14,59,16.20
2019,04,01,15,00,16.20
2019,04,01,15,01,16.20
2019,04,01,15,02,16.20
2019,04,01,15,03,16.10
2019,04,01,15,04,16.10
2019,04,01,15,05,16.00
2019,04,01,15,06,16.00
2019,04,01,15,07,16.10
2019,04,01,15,08,16.20
2019,04,01,15,09,16.20
2019,04,01,15,10,16.10
2019,04,01,15,11,16.10
2019,04,01,15,12,16.10
2019,04,01,15,13,16.10
2019,04,01,15,14,16.20
2019,04,01,15,15,16.20
2019,04,01,15,16,16.20
2019,04,01,15,17,16.20
2019,04,01,15,18,16.30
2019,04,01,15,19,16.40
2019,04,01,15,20,16.40
2019,04,01,15,21,16.40
2019,04,01,15,22,16.50
2019,04,01,15,23,16.50
2019,04,01,15,24,16.60
2019,04,01,15,25,16.60
2019,04,01,15,26,16.70
2019,04,01,15,27,16.70
2019,04,01,15,28,16.60
2019,04,01,15,29,16.60
2019,04,01,15,30,16.60
2019,04,01,15,31,16.50
2019,04,01,15,32,16.60
2019,04,01,15,33,16.60
2019,04,01,15,34,16.60
2019,04,01,15,35,16.60
2019,04,01,15,36,16.60
2019,04,01,15,37,16.50
2019,04,01,15,38,16.40
2019,04,01,15,39,16.30
2019,04,01,15,40,16.30
2019,04,01,15,41,16.30
2019,04,01,15,42,16.40
2019,04,01,15,43,16.50
2019,04,01,15,44,16.50
2019,04,01,15,45,16.60
2019,04,01,15,46,16.60
2019,04,01,15,47,16.60
2019,04,01,15,48,16.60
2019,04,01,15,49,16.50
2019,04,01,15,50,16.50
2019,04,01,15,51,16.50
2019,04,01,15,52,16.60
2019,04,01,15,53,16.60
2019,04,01,15,54,16.60
2019,04,01,15,55,16.60
2019,04,01,15,56,16.60
2019,04,01,15,57,16.60
2019,04,01,15,58,16.60
2019,04,01,15,59,16.60
2019,04,01,16,00,16.60
2019,04,01,16,01,16.70
2019,04,01,16,02,16.70
2019,04,01,16,03,16.70
2019,04,01,16,04,16.70
2019,04,01,16,05,16.70
2019,04,01,16,06,16.70
2019,04,01,16,07,16.80
2019,04,01,16,08,16.80
2019,04,01,16,09,16.80
2019,04,01,16,10,16.90
2019,04,01,16,11,16.90
2019,04,01,16,12,16.90
2019,04,01,16,13,17.00
2019,04,01,16,14,17.00
2019,04,01,16,15,17.00
2019,04,01,16,16,17.10
2019,04,01,16,17,17.00
2019,04,01,16,18,16.90
2019,04,01,16,19,16.90
2019,04,01,16,20,16.80
2019,04,01,16,21,16.70
2019,04,01,16,22,16.70
2019,04,01,16,23,16.70
2019,04,01,16,24,16.70
2019,04,01,16,25,16.80
2019,04,01,16,26,16.80
2019,04,01,16,27,16.80
2019,04,01,16,28,16.90
2019,04,01,16,29,16.90
2019,04,01,16,30,17.00
2019,04,01,16,31,17.10
2019,04,01,16,32,17.10
2019,04,01,16,33,17.10
2019,04,01,16,34,17.10
2019,04,01,16,35,17.10
2019,04,01,16,36,17.10
2019,04,01,16,37,17.10
2019,04,01,16,38,17.00
2019,04,01,16,39,17.00
2019,04,01,16,40,17.10
2019,04,01,16,41,17.10
2019,04,01,16,42,17.10
2019,04,01,16,43,17.20
2019,04,01,16,44,17.30
2019,04,01,16,45,17.30
2019,04,01,16,46,17.30
2019,04,01,16,47,17.30
2019,04,01,16,48,17.20
2019,04,01,16,49,17.20
2019,04,01,16,50,17.30
2019,04,01,16,51,17.30
2019,04,01,16,52,17.30
2019,04,01,16,53,17.40
2019,04,01,16,54,17.40
2019,04,01,16,55,17.50
2019,04,01,16,56,17.50
2019,04,01,16,57,17.50
2019,04,01,16,58,17.50
2019,04,01,16,59,17.50
2019,04,01,17,00,17.50
2019,04,01,17,01,17.50
2019,04,01,17,02,17.40
2019,04,01,17,03,17.40
2019,04,01,17,04,17.50
2019,04,01,17,05,17.50
2019,04,01,17,06,17.50
2019,04,01,17,07,17.40
2019,04,01,17,08,17.30
2019,04,01,17,09,17.30
2019,04,01,17,10,17.30
2019,04,01,17,11,17.40
2019,04,01,17,12,17.40
2019,04,01,17,13,17.40
2019,04,01,17,14,17.40
2019,04,01,17,15,17.40
2019,04,01,17,16,17.40
2019,04,01,17,17,17.40
2019,04,01,17,18,17.40
2019,04,01,17,19,17.30
2019,04,01,17,20,17.20
2019,04,01,17,21,17.20
2019,04,01,17,22,17.30
2019,04,01,17,23,17.30
2019,04,01,17,24,17.30
2019,04,01,17,25,17.20
2019,04,01,17,26,17.10
2019,04,01,17,27,17.20
2019,04,01,17,28,17.20
2019,04,01,17,29,17.20
2019,04,01,17,30,17.20
2019,04,01,17,31,17.20
2019,04,01,17,32,17.20
2019,04,01,17,33,17.20
2019,04,01,17,34,17.30
2019,04,01,17,35,17.20
2019,04,01,17,36,17.20
2019,04,01,17,37,17.20
2019,04,01,17,38,17.20
2019,04,01,17,39,17.20
2019,04,01,17,40,17.20